User: anonymous   Login
Location: Poprad
(49.0500°N, 20.3000°E)
Time: 02:25:52
(UTC+02:00)
Language:

METEOR M2 - Orbit

View from above orbital plane
View from above orbital plane
View from above satellite
View from above satellite

Ground track
Ground track

The orbit data is extracted from the following two-line orbital elements,

1 40069U 14037A   24114.59978980  .00000506  00000-0  25295-3 0  9998
2 40069  98.4363 111.2812 0006343 146.8398 213.3179 14.20937909507872
Epoch (UTC): 23 April 2024 14:23:41
Eccentricity: 0.0006343
inclination: 98.4363°
perigee height: 817 km
apogee height: 827 km
right ascension of ascending node: 111.2812°
argument of perigee: 146.8398°
revolutions per day: 14.20937909
mean anomaly at epoch: 213.3179°
orbit number at epoch: 50787

The dashed part of the orbit path shows where the satellite is in the earth's shadow,  

DLR